Home   Weather   Japan   Nagoya   Past weeks
Flag for Japan

Past Weather in Nagoya, Japan — Yesterday and Last 2 Weeks

Currently: 84 °F. Passing clouds. (Weather station: Nagoya Airport, Japan). See more current weather

Past Weather in Nagoya — Graph

°F

Nagoya Temperature Yesterday

Maximum temperature yesterday: 90 °F (at 5:00 pm)
Minimum temperature yesterday: 79 °F (at 3:30 am)
Average temperature yesterday: 84 °F

High & Low Weather Summary for the Past Weeks

 TemperatureHumidityPressure
High90 °F (Jun 25, 11:30 am)100% (Jun 15, 4:00 pm)30.01 "Hg (Jun 15, 4:00 pm)
Low63 °F (Jun 14, 9:00 pm)55% (Jun 28, 5:00 pm)29.62 "Hg (Jun 24, 5:00 pm)
Average76 °F86%29.82 "Hg
* Reported Jun 14 9:00 pm — Jun 29 9:00 pm, Nagoya. Weather by CustomWeather, © 2022

Note: Actual official high and low records may vary slightly from our data, if they occured in-between our weather recording intervals... More about our weather records

Nagoya Weather History for the Previous 24 Hours

Scroll right to see more
 ConditionsComfort  
Time TempWeatherWind HumidityBarometerVisibility
9:00 pm
Wed, Jun 29
82 °FPassing clouds.3 mph84%29.86 "HgN/A
8:00 pm82 °FClear.10 mph84%29.83 "Hg10 mi
7:30 pm82 °FClear.9 mph84%29.83 "Hg10 mi
7:00 pm82 °FSunny.9 mph84%29.83 "Hg10 mi
6:30 pm84 °FPassing clouds.9 mph79%29.83 "HgN/A
6:00 pm86 °FPassing clouds.10 mph75%29.83 "HgN/A
5:30 pm86 °FPassing clouds.12 mph75%29.83 "HgN/A
5:00 pm88 °FPassing clouds.12 mph66%29.83 "HgN/A
4:30 pm86 °FPassing clouds.12 mph75%29.83 "HgN/A
4:00 pm88 °FPassing clouds.13 mph70%29.83 "HgN/A
3:30 pm90 °FPassing clouds.14 mph59%29.83 "HgN/A
3:00 pm90 °FPassing clouds.15 mph55%29.83 "HgN/A
2:30 pm88 °FPassing clouds.14 mph62%29.83 "HgN/A
2:00 pm88 °FPassing clouds.15 mph70%29.86 "HgN/A
1:30 pm86 °FPassing clouds.14 mph75%29.86 "HgN/A
1:00 pm86 °FPassing clouds.10 mph75%29.86 "HgN/A
12:30 pm86 °FPassing clouds.9 mph75%29.86 "HgN/A
12:00 pm86 °FScattered clouds.8 mph70%29.86 "HgN/A
11:30 am84 °FScattered clouds.9 mph74%29.86 "HgN/A
11:00 am84 °FPassing clouds.10 mph70%29.86 "HgN/A
10:30 am82 °FScattered clouds.10 mph74%29.89 "HgN/A
10:00 am84 °FPassing clouds.10 mph74%29.86 "HgN/A
8:30 am86 °FPassing clouds.6 mph66%29.86 "HgN/A
8:00 am86 °FPassing clouds.7 mph62%29.86 "HgN/A
7:00 am84 °FScattered clouds.7 mph70%29.86 "HgN/A
6:30 am82 °FScattered clouds.7 mph74%29.86 "HgN/A
6:00 am82 °FPartly sunny.8 mph66%29.86 "HgN/A
5:00 am82 °FWarm.15 mph74%29.86 "HgN/A
4:30 am82 °FWarm.13 mph70%29.86 "HgN/A
4:00 am82 °FWarm.14 mph70%29.86 "HgN/A
3:30 am82 °FWarm.10 mph70%29.86 "HgN/A
3:00 am82 °FWarm.6 mph70%29.86 "HgN/A
2:30 am81 °FWarm.5 mph84%29.86 "HgN/A
2:00 am81 °FWarm.7 mph84%29.86 "HgN/A
1:30 am79 °FWarm.6 mph89%29.86 "HgN/A
1:00 am81 °FWarm.7 mph84%29.86 "HgN/A
11:30 pm
Tue, Jun 28
81 °FWarm.9 mph84%29.89 "HgN/A
11:00 pm81 °FWarm.9 mph84%29.89 "HgN/A
Weather by CustomWeather, © 2022

See weather overview